Change the Weather History Date:

Monday, February 27, 2012

  Actual Average Record
Temperature  
Mean Temperature 41 °F 35 °F  
Max Temperature 54 °F 44 °F 61 °F (2011)
Min Temperature 28 °F 26 °F -7 °F (2015)
Degree Days  
Heating Degree Days 24 30  
Month to date heating degree days 763 904  
Since 1 July heating degree days 3449 4133  
Cooling Degree Days 0 0  
Month to date cooling degree days 0 0  
Year to date cooling degree days 0 0  
Moisture  
Dew Point 23 °F    
Average Humidity 49    
Maximum Humidity 69    
Minimum Humidity 28    
Precipitation  
Precipitation 0.00 in 0.09 in 0.96 in (1999)
Month to date precipitation 0.83 2.28  
Year to date precipitation 4.41 4.67  
Sea Level Pressure  
Sea Level Pressure 30.31 in    
Wind  
Wind Speed 9 mph (WNW)    
Max Wind Speed 23 mph    
Max Gust Speed 30 mph    
Visibility 10 miles    
Events      
T = Trace of Precipitation, MM = Missing Value Source: NWS Daily Summary

Daily Weather History Graph

Daily Weather History Graph

Search for Another Location

Airport or City:

Trip Planner

Search our weather history database for the weather conditions in past years. The results will help you decide how hot, cold, wet, or windy it might be!

Date:

Astronomy

Feb. 27, 2012 Rise Set
Actual Time 7:19 AM EST 6:32 PM EST
Civil Twilight 6:52 AM EST 6:59 PM EST
Nautical Twilight 6:21 AM EST 7:31 PM EST
Astronomical Twilight 5:50 AM EST 8:02 PM EST
Moon 9:50 AM EST (2/27) No Moon Set
Length of Visible Light 12h 07m
Length of Day
11h 12m
Waxing Crescent, 29% of the Moon is Illuminated
Feb 27
Waxing Crescent
Feb 29
First Quarter
Mar 8
Full
Mar 14
Last Quarter
Mar 22
New

Hourly Weather History & Observations

Time (EST) Temp. Windchill Dew Point Humidity Pressure Visibility Wind Dir Wind Speed Gust Speed Precip Events Conditions
12:53 AM 39.9 °F 33.9 °F 21.9 °F 49% 30.17 in 10.0 mi South 9.2 mph - N/A   Clear
1:53 AM 39.9 °F 33.9 °F 21.9 °F 49% 30.17 in 10.0 mi South 9.2 mph - N/A   Clear
2:53 AM 39.9 °F 33.9 °F 21.9 °F 49% 30.17 in 10.0 mi South 9.2 mph - N/A   Clear
3:53 AM 39.9 °F 32.5 °F 21.9 °F 49% 30.16 in 10.0 mi South 12.7 mph - N/A   Clear
4:53 AM 39.9 °F 32.9 °F 23.0 °F 51% 30.17 in 10.0 mi South 11.5 mph - N/A   Clear
5:53 AM 36.0 °F 30.3 °F 25.0 °F 64% 30.19 in 10.0 mi SSW 6.9 mph - N/A   Clear
6:53 AM 34.0 °F - 23.0 °F 64% 30.22 in 10.0 mi Calm Calm - N/A   Clear
7:53 AM 35.1 °F - 25.0 °F 67% 30.24 in 10.0 mi Calm Calm - N/A   Partly Cloudy
8:53 AM 44.1 °F 42.5 °F 28.0 °F 53% 30.27 in 10.0 mi West 3.5 mph - N/A   Clear
9:53 AM 46.9 °F - 24.1 °F 41% 30.29 in 10.0 mi WNW 9.2 mph - N/A   Clear
10:53 AM 48.9 °F - 21.9 °F 35% 30.31 in 10.0 mi WNW 13.8 mph 18.4 mph N/A   Clear
11:53 AM 50.0 °F - 23.0 °F 35% 30.32 in 10.0 mi West 12.7 mph - N/A   Clear
12:53 PM 52.0 °F - 24.1 °F 34% 30.32 in 10.0 mi WNW 12.7 mph 21.9 mph N/A   Clear
1:53 PM 53.1 °F - 23.0 °F 31% 30.32 in 10.0 mi WNW 18.4 mph 25.3 mph N/A   Clear
2:53 PM 53.1 °F - 21.9 °F 30% 30.32 in 10.0 mi WNW 18.4 mph 25.3 mph N/A   Clear
3:53 PM 52.0 °F - 21.0 °F 30% 30.33 in 10.0 mi WNW 16.1 mph 19.6 mph N/A   Clear
4:53 PM 50.0 °F - 19.9 °F 31% 30.35 in 10.0 mi WNW 13.8 mph 20.7 mph N/A   Clear
5:53 PM 46.9 °F - 21.0 °F 36% 30.38 in 10.0 mi NW 13.8 mph - N/A   Clear
6:53 PM 39.9 °F 34.5 °F 21.9 °F 49% 30.41 in 10.0 mi NW 8.1 mph - N/A   Clear
7:53 PM 36.0 °F 30.3 °F 21.9 °F 57% 30.44 in 10.0 mi NNW 6.9 mph - N/A   Clear
8:53 PM 36.0 °F 30.3 °F 21.9 °F 57% 30.44 in 10.0 mi North 6.9 mph - N/A   Clear
9:53 PM 33.1 °F 28.7 °F 21.9 °F 64% 30.46 in 10.0 mi NNE 4.6 mph - N/A   Clear
10:53 PM 30.9 °F - 21.0 °F 67% 30.47 in 10.0 mi Calm Calm - N/A   Clear
11:53 PM 28.0 °F 24.2 °F 19.9 °F 72% 30.47 in 10.0 mi NE 3.5 mph - N/A   Clear